Location: Alexandria
(38.8050°N, 77.0470°W)
Time: 03:58:05
(UTC-04:00)

ISS - Pass Details

Date: 10 February 2018
Orbit: 402 x 406 km, 51.6° (Epoch: 18 June)

Event Time Altitude Azimuth Distance (km) Brightness Sun altitude
Rises 18:43:48 0° 312° (NW) 2,319 0.6 -12.9°
Reaches altitude 10° 18:45:55 10° 318° (NW) 1,457 -0.5 -13.3°
Maximum altitude 18:49:06 48° 35° (NE) 537 -3.5 -13.9°
Enters shadow 18:50:23 29° 93° (E) 769 -3.0 -14.2°
